EHI
0 0 0 0 0 0 0 0 0 0 0 0 0 0 0 0 0 0 0 0 0 0 0 0 0 0 0 0 0 0 0 0 0 0 0 0 0 0 0 0 0 0 0 0 0 0 0 0 0
0 0 0 0 0 0 0 0 0 0 0 0 0 0 0 0 0 0 0 0 0 0 0 0 0 0 0 0 0 0 0 0 0 0 0 0 0 0 0 0 0 0 0 0 0 0 0 0 0
0 0 0 0 0 0 0 0 0 0 0 0 0 0 0 0 0 0 0 0 0 0 0 0 0 0 0 0 0 0 0 0 0 0 0 0 0 0 0 0 0 0 0 0 0 0 0 0 0
0 0 0 0 0 0 0 0 0 0 0 0 0 0 0 0 0 0 0 0 0 0 0 0 0 0 0 0 0 0 0 0 0 0 0 0 0 0 0 0 0 0 0 0 0 0 0 0 0
0 0 0 0 0 0 0 0 0 0 0 0 0 0 0 0 0 0 0 0 0 0 0 0 0 0 0 0 0 0 0 0 0 0 0 0 0 0 0 0 0 0 0 0 0 0 0 0 0
0 0 0 0 0 0 0 0 0 0 0 0 0 0 0 0 0 0 0 0 0 0 0 0 0 0 0 0 0 0 0 0 0 0 0 0 0 0 0 0 0 0 0 0 0 0 0 0 0
0 0 0 0 0 0 0 0 0 0 0 0 0 0 0 0 0 0 0 0 0 0 0 0 0 0 0 0 0 0 0 0 0 0 0 0 0 0 0 0 0 0 0 0 0 0 0 0 0
0 0 0 0 0 0 0 0 0 0 0 0 0 0 0 0 0 0 0 0 0 0 0 0 0 0 0 0 0 0 0 0 0 0 0 0 0 0 0 0 0 0 0 0 0 0 0 0 0
0 0 0 0 0 0 0 0 0 0 0 0 0 0 0 0 0 0 0 0 0 0 0 0 0 0 0 0 0 0 0 0 0 0 0 0 0 0 0 0 0 0 0 0 0 0 0 0 0
0 0 0 0 0 0 0 0 0 0 0 0 0 0 0 0 0 0 0 0 0 0 0 0 0 0 0 0 0 0 0 0 0 0 0 0 0 0 0 0 0 0 0 0 0 0 0 0 0
0 0 0 0 0 0 0 0 0 0 0 0 0 0 0 0 0 0 0 0 0 0 0 0 0 0 0 0 0 0 0 0 0 0 0 0 0 0 0 0 0 0 0 0 0 0 0 0 0
0 0 0 0 0 0 0 0 0 0 0 0 0 0 0 0 0 0 0 0 0 0 0 0 0 0 0 0 0 0 0 0 0 0 0 0 0 0 0 0 0 0 0 0 0 0 0 0 0
0 0 0 0 0 0 0 0 0 0 0 0 0 0 0 0 0 0 0 0 0 0 0 0 0 0 0 0 0 0 0 0 0 0 0 0 0 0 0 0 0 0 0 0 0 0 0 0 0
0 0 0 0 0 0 0 0 0 0 0 0 0 0 0 0 0 0 0 0 0 0 0 0 0 0 0 0 0 0 0 0 0 0 0 0 0 0 0 0 0 0 0 0 0 0 0 0 0
0 0 0 0 0 0 0 0 0 0 0 0 0 0 0 0 0 0 0 0 0 0 0 0 0 0 0 0 0 0 0 0 0 0 0 0 0 0 0 0 0 0 0 0 0 0 0 0 0
0 0 0 0 0 0 0 0 0 0 0 0 0 0 0 0 0 0 0 0 0 0 0 0 0 0 0 0 0 0 0 0 0 0 0 0 0 0 0 0 0 0 0 0 0 0 0 0 0
0 0 0 0 0 0 0 0 0 0 0 0 0 0 0 0 0 0 0 0 0 0 0 0 0 0 0 0 0 0 0 0 0 0 0 0 0 0 0 0 0 0 0 0 0 0 0 0 0
0 0 0 0 0 0 0 0 0 0 0 0 0 0 0 0 0 0 0 0 0 0 0 0 0 0 0 0 0 0 0 0 0 0 0 0 0 0 0 0 0 0 0 0 0 0 0 0 0
0 0 0 0 0 0 0 0 0 0 0 0 0 0 0 0 0 0 0 0 0 0 0 0 0 0 0 0 0 0 0 0 0 0 0 0 0 0 0 0 0 0 0 0 0 0 0 0 0
0 0 0 0 0 0 0 0 0 0 0 0 0 0 0 0 0 0 0 0 0 0 0 0 0 0 0 0 0 0 0 0 0 0 0 0 0 0 0 0 0 0 0 0 0 0 0 0 0
0 0 0 0 0 0 0 0 0 0 0 0 0 0 0 0 0 0 0 0 0 0 0 0 0 0 0 0 0 0 0 0 0 0 0 0 0 0 0 0 0 0 0 0 0 0 0 0 0
0 0 0 0 0 0 0 0 0 0 0 0 0 0 0 0 0 0 0 0 0 0 0 0 0 0 0 0 0 0 0 0 0 0 0 0 0 0 0 0 0 0 0 0 0 0 0 0 0
0 0 0 0 0 0 0 0 0 0 0 0 0 0 0 0 0 0 0 0 0 0 0 0 0 0 0 0 0 0 0 0 0 0 0 0 0 0 0 0 0 0 0 0 0 0 0 0 0
0 0 0 0 0 0 0 0 0 0 0 0 0 0 0 0 0 0 0 0 0 0 0 0 0 0 0 0 0 0 0 0 0 0 0 0 0 0 0 0 0 0 0 0 0 0 0 0 0
0 0 0 0 0 0 0 0 0 0 0 0 0 0 0 0 0 0 0 0 0 0 0 0 0 0 0 0 0 0 0 0 0 0 0 0 0 0 0 0 0 0 0 0 0 0 0 0 0
0 0 0 0 0 0 0 0 0 0 0 0 0 0 0 0 0 0 0 0 0 0 0 0 0 0 0 0 0 0 0 0 0 0 0 0 0 0 0 0 0 0 0 0 0 0 0 0 0
0 0 0 0 0 0 0 0 0 0 0 0 0 0 0 0 0 0 0 0 0 0 0 0 0 0 0 0 0 0 0 0 0 0 0 0 0 0 0 0 0 0 0 0 0 0 0 0 0
0 0 0 0 0 0 0 0 0 0 0 0 0 0 0 0 0 0 0 0 0 0 0 0 0 0 0 0 0 0 0 0 0 0 0 0 0 0 0 0 0 0 0 0 0 0 0 0 0
0 0 0 0 0 0 0 0 0 0 0 0 0 0 0 0 0 0 0 0 0 0 0 0 0 0 0 0 0 0 0 0 0 0 0 0 0 0 0 0 0 0 0 0 0 0 0 0 0
0 0 0 0 0 0 0 0 0 0 0 0 0 0 0 0 0 0 0 0 0 0 0 0 0 0 0 0 0 0 0 0 0 0 0 0 0 0 0 0 0 0 0 0 0 0 0 0 0
Wind_Speed
5 4 4 6 11 12 6 4 3 4 5 2 2 7 8 6 6 6 1 9 12 12 13 16 24 25 25 26 26 26 26 26 27 27 27 27 27 28 28 28 28 28 28 27 27 27 27 27 26
3 5 9 9 10 7 4 3 4 4 6 4 4 5 6 6 4 5 4 9 10 11 12 15 24 25 25 25 26 26 26 26 26 26 27 27 27 27 27 28 28 28 28 27 27 27 27 27 27
6 10 10 9 9 5 4 3 4 5 5 3 4 5 5 4 4 4 5 7 7 9 12 17 25 25 25 25 26 26 26 26 26 26 26 26 27 27 27 28 28 28 28 27 27 27 27 27 27
6 9 10 12 10 4 3 2 4 6 4 5 5 6 5 5 3 4 4 5 6 8 10 16 25 24 24 24 25 25 26 26 25 25 25 26 26 27 26 27 28 27 28 27 27 27 27 27 27
7 8 12 9 5 3 3 3 2 4 3 4 5 6 4 3 5 5 3 5 7 8 10 15 24 24 24 24 25 25 25 25 25 25 26 26 26 26 26 26 27 27 27 27 27 27 27 27 26
8 8 10 6 4 3 2 2 3 5 4 4 6 5 3 2 3 3 3 5 6 7 9 13 22 24 23 23 24 25 24 25 25 25 26 26 27 27 26 27 27 27 27 26 26 27 27 27 26
8 9 8 8 6 4 3 2 4 5 4 3 5 6 4 2 2 2 4 5 6 7 9 10 11 14 20 22 24 24 24 24 24 25 26 26 27 27 27 27 27 27 27 26 26 27 27 27 26
7 9 8 5 6 5 4 3 3 3 4 2 4 8 6 4 4 2 3 4 5 6 8 9 9 10 11 11 21 24 23 24 23 24 24 25 24 24 25 25 26 27 26 26 26 27 27 27 26
6 9 5 5 7 7 5 5 3 3 5 4 3 4 6 7 4 1 1 4 6 8 7 9 9 10 10 9 15 16 18 19 19 17 22 19 11 11 14 21 25 26 26 26 26 27 26 25 23
9 7 4 1 6 7 5 5 7 5 5 4 4 4 5 5 3 2 5 7 9 10 8 7 7 8 7 8 6 5 7 8 8 8 10 8 8 9 14 20 23 24 25 25 25 26 23 18 11
9 7 4 3 5 7 6 5 5 8 4 6 8 8 6 4 3 5 5 5 6 5 7 6 6 6 6 6 5 4 4 5 6 8 9 8 7 7 8 7 10 12 16 11 16 15 11 11 11
9 6 4 4 4 5 6 5 4 2 3 7 10 9 6 6 4 4 4 5 5 5 6 5 5 5 5 5 5 4 5 5 5 7 8 7 6 7 8 7 8 7 7 10 9 9 12 13 13
7 5 4 6 9 7 6 5 4 2 4 8 8 7 7 6 5 4 4 4 4 5 6 5 4 6 6 5 5 6 5 5 6 6 7 8 6 7 8 7 7 8 8 9 10 10 13 13 13
6 7 6 5 5 3 5 3 4 3 5 7 7 6 6 5 5 4 3 3 3 4 6 6 4 6 6 5 5 4 5 5 5 5 7 9 7 7 8 8 7 7 8 9 9 11 11 11 11
5 7 5 3 3 3 5 2 5 7 7 7 6 5 5 4 4 4 3 2 2 3 5 7 5 6 6 6 6 6 5 6 5 6 7 8 8 7 8 7 7 7 8 9 9 10 9 11 11
4 5 1 1 3 3 2 4 4 9 10 8 7 6 5 4 4 4 4 2 1 3 5 6 7 6 6 6 6 5 5 6 5 5 6 7 8 8 7 7 6 7 8 8 9 8 10 11 11
3 2 1 2 4 4 4 6 3 8 10 9 8 7 6 4 4 4 4 2 1 3 5 6 6 6 6 6 6 6 5 5 5 5 5 7 8 9 7 7 6 8 7 7 9 9 10 11 12
1 1 2 3 5 5 5 7 4 9 10 9 8 7 6 6 6 5 4 2 1 3 4 5 5 5 6 5 4 4 5 5 5 5 6 9 8 10 8 7 7 8 7 6 8 10 10 10 11
2 2 2 2 4 6 8 9 7 9 9 9 9 8 8 7 4 5 4 2 2 3 4 5 5 6 5 4 5 6 6 6 5 5 7 9 9 10 9 8 8 8 8 9 9 10 11 9 10
2 1 1 1 2 4 5 9 6 7 9 9 10 10 9 6 4 4 4 2 2 4 5 5 6 6 6 4 4 4 6 5 5 6 7 8 10 11 11 10 9 9 8 9 9 10 9 9 8
2 1 1 2 2 1 5 8 2 2 4 5 7 7 7 8 7 5 4 3 2 3 4 6 6 7 6 6 5 6 4 4 4 6 5 6 10 11 11 10 10 10 8 8 9 9 10 10 9
1 1 1 1 2 4 3 7 5 3 3 6 7 7 7 6 6 4 3 2 1 2 4 5 6 6 6 6 6 7 8 8 8 6 7 9 9 11 11 11 11 10 9 10 10 9 8 9 10
1 1 1 2 1 3 1 2 8 1 6 9 8 8 7 7 6 5 3 1 2 3 4 5 5 5 6 6 7 7 6 6 7 8 9 8 8 9 11 12 10 10 10 11 11 11 9 7 8
0 3 4 4 3 3 2 3 9 4 7 5 6 8 8 7 6 5 3 2 3 3 4 5 5 6 6 7 7 7 9 9 11 11 9 9 7 7 9 13 10 10 10 11 12 10 10 9 9
4 4 6 7 5 4 1 3 11 3 4 4 6 8 8 7 6 4 3 2 3 4 4 5 6 7 7 8 8 8 8 8 9 11 11 11 10 10 11 12 11 11 12 13 12 11 11 9 10
2 3 4 2 5 7 2 7 8 0 0 1 3 7 7 7 6 5 3 1 2 4 5 6 7 7 8 8 8 7 7 6 6 9 10 10 10 11 13 13 14 15 15 14 12 11 11 9 8
2 3 3 5 1 5 8 9 8 2 1 2 4 7 7 7 6 5 3 1 1 3 4 6 7 7 8 8 8 7 7 8 9 9 9 8 10 12 14 16 16 16 16 15 13 10 10 9 9
2 7 4 3 1 6 8 7 7 6 8 7 8 8 8 7 6 5 3 1 1 3 4 5 6 6 7 8 7 9 8 8 9 9 10 11 12 13 15 17 17 17 17 15 12 10 9 9 9
3 3 4 4 3 3 6 11 7 6 6 10 12 10 10 9 7 5 3 1 1 3 4 5 6 7 7 7 7 7 8 8 9 9 10 11 11 13 15 17 18 18 17 14 10 9 9 8 8
4 5 7 3 3 4 4 13 3 3 4 6 8 9 9 8 7 5 3 0 2 4 5 5 6 6 7 6 7 7 8 9 9 10 11 11 12 13 14 15 16 17 16 13 11 9 9 8 9
Wind_Direction
38 62 61 54 60 59 64 33 76 89 75 55 50 84 97 77 84 130 189 17 1 354 349 351 12 14 16 17 17 16 16 15 14 14 13 12 11 9 9 7 5 3 1 0 358 357 357 355 353
57 63 50 54 72 74 40 23 60 72 130 141 71 74 75 78 85 88 28 9 1 356 355 356 15 15 16 17 17 16 15 15 14 13 13 12 10 8 8 5 3 1 359 358 357 356 355 353 351
70 57 64 62 72 100 113 52 95 88 110 120 83 58 68 47 52 61 26 5 357 2 2 358 17 16 16 17 17 15 15 14 13 13 12 11 9 7 6 4 1 359 357 356 356 354 352 350 349
71 56 60 63 71 40 81 114 126 126 81 59 85 58 51 7 43 71 36 7 9 12 6 3 18 16 16 16 17 15 14 13 13 12 12 11 8 5 5 3 359 357 356 354 353 352 350 348 346
61 72 69 64 65 52 30 25 74 87 63 54 86 91 70 27 47 67 45 23 27 21 17 11 17 16 15 15 16 14 14 12 12 11 10 10 7 4 3 1 357 356 354 352 351 349 348 346 345
61 66 78 95 111 129 63 33 79 84 94 93 96 100 94 60 66 59 43 35 32 28 24 20 16 16 14 13 16 13 13 12 12 11 10 9 5 2 1 360 356 355 353 351 350 348 345 344 343
82 76 93 122 135 145 138 82 82 108 103 112 120 107 134 136 130 94 51 37 38 34 30 21 13 12 11 11 14 12 13 12 12 10 8 7 4 360 359 357 353 354 352 350 349 346 344 343 342
99 94 92 121 136 141 140 105 88 102 115 52 96 134 168 175 145 108 57 32 38 41 35 21 11 11 5 360 12 11 12 11 11 8 6 6 1 356 356 352 350 352 350 350 347 345 343 342 340
73 73 100 154 157 152 147 120 97 70 92 52 54 126 144 137 130 104 37 29 31 33 33 22 12 8 1 0 13 8 9 7 9 4 3 2 351 345 352 345 348 350 348 349 344 343 343 342 338
55 91 126 143 149 142 130 132 147 110 86 73 60 78 107 117 139 101 50 33 26 19 16 21 7 1 359 4 2 357 360 354 353 353 354 351 346 343 352 343 346 348 346 346 342 342 342 339 331
59 100 114 69 103 112 112 122 136 126 146 175 168 162 152 144 131 84 64 48 33 7 359 4 360 354 0 359 354 1 350 346 347 348 350 346 340 339 342 335 340 340 342 340 337 337 334 329 326
80 57 86 105 90 93 111 116 116 161 196 162 160 155 156 148 117 95 79 54 29 3 348 345 355 355 360 358 346 1 349 344 347 343 346 347 342 340 339 335 333 336 337 332 332 327 325 324 320
75 91 58 77 80 85 89 93 114 102 108 120 135 143 152 141 122 110 96 67 28 357 340 337 358 2 357 358 350 1 342 342 337 338 345 347 342 338 336 331 330 331 332 330 327 326 322 322 319
91 91 93 75 78 83 105 105 110 155 137 135 152 163 161 152 147 130 94 60 15 347 340 334 4 4 355 355 345 343 338 336 335 337 339 342 338 333 333 328 325 328 329 325 323 318 318 318 316
100 86 75 84 92 109 112 151 205 170 152 162 179 181 171 163 153 141 126 104 8 346 338 335 2 7 354 351 346 347 333 334 333 332 330 331 332 329 329 324 321 325 324 321 322 315 319 317 315
84 84 81 184 122 133 134 263 193 156 160 182 196 198 188 173 159 148 145 141 32 352 335 332 350 352 348 349 341 332 328 325 321 320 320 321 326 326 324 319 315 319 321 321 320 321 324 318 314
53 85 250 206 179 152 186 247 184 166 173 191 201 205 200 188 173 164 163 154 27 343 321 322 327 341 346 344 337 325 321 317 313 313 313 321 325 325 321 312 311 319 317 318 320 326 319 316 314
193 209 252 248 193 167 214 248 205 184 187 198 204 207 207 207 201 176 172 167 348 328 311 309 320 338 342 339 331 323 318 311 308 310 314 323 323 323 320 310 315 317 315 316 316 317 316 311 311
151 178 249 267 166 185 229 251 234 191 196 204 208 211 213 218 190 163 169 175 319 311 315 315 335 343 350 346 342 331 326 316 309 310 320 319 319 320 315 314 315 315 313 314 314 318 315 315 315
132 146 269 287 165 212 268 265 244 190 201 203 203 207 208 200 174 181 187 200 289 302 316 330 346 341 344 337 321 305 306 301 302 309 307 311 320 321 322 319 316 312 311 310 312 316 311 315 323
77 149 271 280 4 29 328 305 221 204 193 199 203 202 196 194 194 196 202 224 269 306 329 341 336 336 336 332 323 322 304 299 315 320 308 316 319 318 315 313 312 309 307 307 307 304 311 313 310
6 268 206 156 23 318 10 308 287 218 228 219 209 196 192 187 178 181 193 219 277 327 339 338 334 334 333 334 334 335 341 332 326 320 316 319 317 316 317 316 312 308 308 304 302 312 302 301 306
258 19 118 141 141 332 355 252 288 86 261 241 216 198 186 176 166 167 165 151 34 1 344 338 337 333 332 334 331 327 319 308 314 317 316 315 315 314 317 317 311 308 307 301 298 298 292 292 291
166 80 71 67 70 333 246 203 283 226 228 247 207 187 177 164 152 144 126 77 23 356 343 342 343 336 333 332 328 323 316 316 324 328 326 326 321 314 309 313 306 303 301 298 297 292 288 287 285
50 56 11 356 359 285 166 237 254 262 216 224 202 184 169 156 150 147 122 49 356 342 344 348 348 337 330 329 324 317 312 313 319 325 327 326 324 321 315 311 307 303 298 296 294 292 289 283 280
40 94 119 278 280 297 302 251 260 140 79 238 173 155 150 152 154 146 126 88 326 337 350 351 342 330 326 326 321 310 313 320 320 320 320 317 315 314 309 311 309 303 299 299 295 293 286 282 279
98 95 137 142 294 288 283 284 300 139 216 143 143 151 164 164 157 147 139 151 320 344 350 342 331 324 321 319 316 315 325 324 321 319 315 313 312 314 316 313 310 308 307 303 298 289 286 283 281
75 140 100 111 311 296 294 283 267 250 236 212 196 188 179 166 158 155 166 210 312 346 338 331 324 316 311 314 317 337 326 321 321 320 317 317 316 316 316 319 320 319 316 312 305 296 290 288 286
127 117 112 115 162 209 293 278 226 230 222 212 206 190 177 172 169 172 184 217 342 347 335 324 319 314 311 312 316 322 320 322 323 320 318 318 318 321 323 324 327 330 330 330 326 320 313 306 306
178 181 155 166 222 198 237 271 252 217 238 213 193 176 169 164 162 168 178 191 352 337 323 318 313 310 307 311 320 323 323 324 323 321 319 321 322 324 326 329 334 339 342 346 349 342 340 334 332